Location: Schommer Observatory
(40.5200°N, 74.4500°W)
Time: 19:59:29
(UTC-04:00)

Tiangong 2 - Pass Details

Date: 22 March 2019
Orbit: 378 x 390 km, 42.8° (Epoch: 23 April)

Event Time Altitude Azimuth Distance (km) Brightness Sun altitude
Exits shadow 05:20:28 57° 164° (SSE) 456 1.3 -19.1°
Drops below altitude 10° 05:23:14 10° 120° (ESE) 1,400 4.5 -18.6°
Sets 05:25:19 0° 117° (ESE) 2,254 5.7 -18.2°
